Weather History for Huron, SD

Change the Weather History Date:

Sunday, March 24, 2013

  Actual Average Record
Temperature  
Mean Temperature 19 °F 37 °F  
Max Temperature 27 °F 48 °F 80 °F (1907)
Min Temperature 11 °F 26 °F -2 °F (1952)
Degree Days  
Heating Degree Days 46 28  
Month to date heating degree days 1021 800  
Since 1 July heating degree days 6847 6632  
Cooling Degree Days 0 0  
Month to date cooling degree days 0 0  
Year to date cooling degree days 0 0  
Moisture  
Dew Point 16 °F    
Average Humidity 83    
Maximum Humidity 93    
Minimum Humidity 69    
Precipitation  
Precipitation 0.02 in 0.05 in 1.15 in (1987)
Month to date precipitation 0.78 1.01  
Year to date precipitation 2.16 2.11  
Snow  
Snow 0.30 in 0.20 in 9.50 in (1975)
Month to date snowfall 7.2 7.2  
Since 1 July snowfall 40.4 38.2  
Snow Depth 4.00 in    
Sea Level Pressure  
Sea Level Pressure 30.19 in    
Wind  
Wind Speed 15 mph (NNW)    
Max Wind Speed 23 mph    
Max Gust Speed 26 mph    
Visibility 7 miles    
Events Snow    
T = Trace of Precipitation, MM = Missing Value Source: NWS Daily Summary

Daily Weather History Graph

Daily Weather History Graph

Search for Another Location

Airport:

Trip Planner

Search our weather history database for the weather conditions in past years. The results will help you decide how hot, cold, wet, or windy it might be!

Date:

Astronomy

Mar. 24, 2013 Rise Set
Actual Time 7:28 AM CDT 7:50 PM CDT
Civil Twilight 6:59 AM CDT 8:19 PM CDT
Nautical Twilight 6:24 AM CDT 8:54 PM CDT
Astronomical Twilight 5:49 AM CDT 9:29 PM CDT
Moon 5:15 PM CDT (3/24) 5:44 AM CDT (3/24)
Length of Visible Light 13h 20m
Length of Day
12h 22m
Waxing Gibbous, 92% of the Moon is Illuminated
Mar 24
Waxing Gibbous
Mar 27
Full
Apr 2
Last Quarter
Apr 10
New
Apr 18
First Quarter

Hourly Weather History & Observations

Time (CDT) Temp. Windchill Dew Point Humidity Pressure Visibility Wind Dir Wind Speed Gust Speed Precip Events Conditions
12:55 AM 18.0 °F 5.4 °F 14.0 °F 84% 30.25 in 10.0 mi NW 11.5 mph - N/A   Scattered Clouds
1:55 AM 16.0 °F 3.6 °F 12.9 °F 88% 30.25 in 10.0 mi NW 10.4 mph - N/A   Clear
2:55 AM 15.1 °F 1.8 °F 10.9 °F 84% 30.25 in 10.0 mi NW 11.5 mph - N/A   Clear
3:53 AM 15.8 °F 0.9 °F 10.4 °F 79% 30.16 in 10.0 mi NW 15.0 mph - N/A   Mostly Cloudy
3:55 AM 15.1 °F 0.5 °F 10.0 °F 80% 30.23 in 10.0 mi NW 13.8 mph - N/A   Mostly Cloudy
4:11 AM 15.8 °F 2.7 °F 10.4 °F 79% 30.16 in 10.0 mi NW 11.5 mph - N/A   Scattered Clouds
4:55 AM 14.0 °F -0.2 °F 10.0 °F 84% 30.23 in 10.0 mi WNW 12.7 mph - N/A   Mostly Cloudy
5:40 AM 12.2 °F -0.2 °F 8.6 °F 85% 30.15 in 10.0 mi NW 9.2 mph - N/A   Overcast
5:55 AM 14.0 °F -0.8 °F 10.0 °F 84% 30.22 in 10.0 mi NW 13.8 mph - N/A   Overcast
6:55 AM 12.0 °F -2.0 °F 8.1 °F 84% 30.23 in 10.0 mi NW 11.5 mph - N/A   Partly Cloudy
7:11 AM 10.4 °F -3.3 °F 6.8 °F 85% 30.16 in 10.0 mi NW 10.4 mph - N/A   Mostly Cloudy
7:55 AM 10.9 °F -4.1 °F 8.1 °F 88% 30.23 in 9.0 mi NW 12.7 mph - N/A   Overcast
8:55 AM 12.0 °F -3.4 °F 8.1 °F 84% 30.22 in 7.0 mi NW 13.8 mph - N/A   Overcast
9:55 AM 12.9 °F -3.4 °F 8.1 °F 81% 30.21 in 10.0 mi NW 16.1 mph - N/A   Mostly Cloudy
10:02 AM 12.2 °F -3.7 °F 8.6 °F 85% 30.13 in 10.0 mi NW 15.0 mph - N/A   Scattered Clouds
10:42 AM 15.8 °F 2.1 °F 10.4 °F 79% 30.14 in 10.0 mi NW 12.7 mph - N/A   Mostly Cloudy
10:55 AM 17.1 °F 3.6 °F 10.9 °F 77% 30.21 in 9.0 mi NW 12.7 mph - N/A   Overcast
11:55 AM 19.0 °F 6.1 °F 14.0 °F 81% 30.20 in 6.0 mi NW 12.7 mph - N/A   Haze
12:55 PM 21.9 °F 9.8 °F 16.0 °F 78% 30.20 in 5.0 mi NNW 12.7 mph - 0.00 in Snow Light Snow
1:55 PM 24.1 °F 11.5 °F 18.0 °F 77% 30.19 in 9.0 mi NNW 15.0 mph - 0.00 in   Overcast
2:55 PM 25.0 °F 12.6 °F 19.0 °F 78% 30.18 in 5.0 mi NW 15.0 mph - 0.00 in   Haze
3:02 PM 24.8 °F 11.9 °F 19.4 °F 80% 30.11 in 4.0 mi NNW 16.1 mph - 0.00 in   Haze
3:30 PM 24.8 °F 11.9 °F 19.4 °F 80% 30.11 in 2.5 mi NNW 16.1 mph - 0.00 in Snow Light Snow
3:55 PM 26.1 °F 12.3 °F 19.9 °F 78% 30.17 in 2.5 mi NW 19.6 mph - 0.00 in Snow Light Snow
4:28 PM 26.6 °F 12.7 °F 21.2 °F 80% 30.10 in 1.2 mi NNW 20.7 mph - 0.00 in Snow Light Snow
4:55 PM 26.1 °F 12.3 °F 21.9 °F 84% 30.18 in 1.0 mi NNW 19.6 mph - 0.00 in Snow Light Snow
5:22 PM 26.6 °F 13.1 °F 23.0 °F 86% 30.11 in 2.5 mi NNW 19.6 mph - 0.00 in Snow Light Snow
5:40 PM 26.6 °F 13.1 °F 23.0 °F 86% 30.12 in 1.5 mi NNW 19.6 mph - 0.00 in Snow Light Snow
5:55 PM 27.0 °F 12.8 °F 23.0 °F 85% 30.19 in 1.5 mi North 21.9 mph - 0.00 in Snow Light Snow
6:18 PM 26.6 °F 12.7 °F 23.0 °F 86% 30.13 in 2.0 mi North 20.7 mph 26.5 mph 0.00 in Snow Light Snow
6:23 PM 26.6 °F 13.8 °F 23.0 °F 86% 30.13 in 1.8 mi NNW 17.3 mph 26.5 mph 0.00 in Snow Light Snow
6:51 PM 26.6 °F 14.3 °F 24.8 °F 93% 30.14 in 2.0 mi North 16.1 mph - 0.00 in Snow Light Snow
6:55 PM 26.1 °F 13.1 °F 24.1 °F 92% 30.21 in 2.5 mi North 17.3 mph - 0.00 in Snow Light Snow
6:58 PM 26.6 °F 13.4 °F 24.8 °F 93% 30.14 in 3.0 mi North 18.4 mph - 0.00 in Snow Light Snow
7:55 PM 26.6 °F 13.4 °F 23.0 °F 86% 30.16 in 3.0 mi North 18.4 mph - N/A Snow Light Snow
8:02 PM 24.8 °F 11.1 °F 23.0 °F 93% 30.17 in 4.0 mi North 18.4 mph - 0.00 in Snow Light Snow
8:55 PM 24.1 °F 11.5 °F 21.0 °F 88% 30.25 in 10.0 mi NNW 15.0 mph - 0.00 in   Scattered Clouds
9:55 PM 24.1 °F 12.0 °F 21.0 °F 88% 30.26 in 10.0 mi NNW 13.8 mph - N/A   Overcast
10:27 PM 24.8 °F 11.5 °F 21.2 °F 86% 30.20 in 10.0 mi NNW 17.3 mph - N/A   Overcast
10:55 PM 24.1 °F 12.0 °F 21.0 °F 88% 30.27 in 10.0 mi NNW 13.8 mph - N/A   Mostly Cloudy
11:05 PM 24.8 °F 13.4 °F 21.2 °F 86% 30.20 in 10.0 mi NNW 12.7 mph - N/A   Mostly Cloudy
11:55 PM 24.1 °F 11.5 °F 21.0 °F 88% 30.28 in 3.0 mi North 15.0 mph - 0.00 in Snow Light Snow